Location: Brasstown Bald
(34.8693°N, 83.8103°W)
Time: 22:38:24
(UTC-05:00)

Amateur Radio Satellites - All Passes

Search period start: 21 January 2017 22:08
Search period end: 22 January 2017 22:08
Location: Brasstown Bald, 34.8693°N, 83.8103°W

Satellite Date Start Highest point End Downlink Frequencies (MHz)
Time Altitude Azimuth
PRISM 21 Jan 22:09:20 22:13:25 69° 285° (WNW) 22:17:27 437.425
ISS 21 Jan 22:25:42 22:28:39 31° 323° (NW) 22:31:36 145.825
CUBEBUG 1 21 Jan 22:28:08 22:29:48 12° 66° (ENE) 22:31:28 437.445
JAS-2 21 Jan 22:33:22 22:39:37 28° 95° (E) 22:46:05 435.910
AISAT 21 Jan 22:48:05 22:50:12 13° 66° (ENE) 22:52:18 437.250
UNISAT 6 21 Jan 22:59:59 23:04:25 64° 285° (WNW) 23:08:56 437.425
BY70-1 21 Jan 23:02:11 23:05:05 58° 260° (W) 23:08:14 436.1900
TIGRISAT 21 Jan 23:12:57 23:17:15 49° 286° (WNW) 23:21:39 435.000
ESTCUBE 1 21 Jan 23:14:02 23:18:32 74° 77° (ENE) 23:23:05 437.505/2401.250
NANOSAT C BR1 21 Jan 23:17:06 23:19:10 13° 93° (E) 23:21:14 145.865
VELOX 1 21 Jan 23:19:27 23:23:15 28° 71° (ENE) 23:27:03 145.980
50 SAT 21 Jan 23:21:48 23:24:15 18° 70° (ENE) 23:26:43 437.505
AO-85 21 Jan 23:27:48 23:31:39 62° 243° (WSW) 23:35:32 145.980
ANTELSAT 21 Jan 23:28:56 23:32:51 31° 288° (WNW) 23:36:50 437.575/2403.000
RS-15 21 Jan 23:33:37 23:45:18 76° 114° (ESE) 23:57:32 29.354- 29.394
PCSat 21 Jan 23:35:06 23:39:01 21° 106° (ESE) 23:42:58 145.827
SPROUT 21 Jan 23:36:37 23:40:21 30° 71° (ENE) 23:44:05 437.525
UKube-1 21 Jan 23:43:25 23:46:17 17° 68° (ENE) 23:49:09 .
DX 1 21 Jan 23:46:33 23:50:12 26° 70° (ENE) 23:53:51 434.975-435.025
CUBEBUG 1 22 Jan 00:01:16 00:05:35 54° 260° (W) 00:09:54 437.445
QB50P1 22 Jan 00:08:35 00:12:47 65° 102° (ESE) 00:16:58 145.935-145.965
POLYITAN 1 22 Jan 00:13:14 00:17:28 75° 102° (ESE) 00:21:42 437.675
QB50P2 22 Jan 00:14:32 00:18:47 84° 102° (ESE) 00:23:02 145.880/145.840
JAS-2 22 Jan 00:17:35 00:24:41 54° 288° (WNW) 00:32:14 435.910
AISAT 22 Jan 00:21:53 00:26:12 49° 260° (W) 00:30:31 437.250
YUBILEINY 22 Jan 00:31:10 00:38:04 25° 70° (ENE) 00:44:52 435.215
POPSAT HIP 1 22 Jan 00:35:42 00:39:52 59° 285° (WNW) 00:44:01 437.405
DUCHIFAT 1 22 Jan 00:44:32 00:48:38 54° 285° (WNW) 00:52:44 145.980
PHONESAT 2.4 22 Jan 00:47:07 00:49:11 33° 152° (SSE) 00:51:15 2401.200-2431.200
Cosmos 2504 22 Jan 00:48:46 00:51:12 12° 65° (ENE) 00:53:36 435.465 / 435.565
NANOSAT C BR1 22 Jan 00:51:04 00:55:01 40° 287° (WNW) 00:58:58 145.865
AIST 1 22 Jan 00:53:01 00:56:48 30° 78° (ENE) 01:00:33
50 SAT 22 Jan 00:54:30 00:57:17 21° 264° (W) 01:00:05 437.505
VELOX 1 22 Jan 00:56:14 00:59:38 22° 264° (W) 01:03:04 145.980
TISAT 1 22 Jan 00:58:46 01:02:34 35° 72° (ENE) 01:06:23 437.305
BUGSAT 1 22 Jan 01:12:29 01:16:31 76° 283° (WNW) 01:20:35 437.445
SPROUT 22 Jan 01:13:21 01:16:16 18° 265° (W) 01:19:12 437.525
PCSat 22 Jan 01:16:53 01:22:02 44° 301° (WNW) 01:27:14 145.827
Cosmos 2491 22 Jan 01:16:55 01:23:54 28° 84° (E) 01:30:53 435.465 / 435.565
UKube-1 22 Jan 01:18:05 01:22:01 34° 262° (W) 01:25:58 .
DX 1 22 Jan 01:22:52 01:26:18 22° 264° (W) 01:29:44 434.975-435.025
BEESAT 3 22 Jan 01:22:57 01:26:56 61° 60° (ENE) 01:30:51 437.485
RS-15 22 Jan 01:48:32 01:58:58 34° 318° (NW) 02:09:48 29.354- 29.394
ITUPSAT 1 22 Jan 01:52:26 01:56:26 28° 69° (ENE) 02:00:29 437.325
Oscar 19 22 Jan 02:00:45 02:05:56 76° 103° (ESE) 02:11:02 437.125/150
MOZHAYETS 4 22 Jan 02:09:30 02:10:49 11° 64° (ENE) 02:12:08
BEESAT 2 22 Jan 02:11:18 02:15:22 90° 182° (S) 02:19:23 435.950
CUSAT 1 22 Jan 02:11:50 02:14:45 15° 80° (E) 02:18:03 437.405
PHONESAT 2.4 22 Jan 02:21:05 02:23:07 29° 346° (NNW) 02:25:08 2401.200-2431.200
BEESAT 22 Jan 02:25:07 02:29:49 65° 75° (ENE) 02:34:32 436.000
YUBILEINY 22 Jan 02:26:45 02:35:23 63° 269° (W) 02:43:56 435.215
SWISSCUBE 22 Jan 02:26:53 02:31:37 78° 76° (ENE) 02:36:24 437.505
Gurwin Techsat 1B 22 Jan 02:28:05 02:33:24 73° 102° (ESE) 02:38:42 435.225
AIST 1 22 Jan 02:31:26 02:34:06 16° 273° (W) 02:36:44
TISAT 1 22 Jan 02:35:54 02:38:16 15° 266° (W) 02:40:39 437.305
Cosmos 2504 22 Jan 02:38:20 02:45:40 88° 84° (E) 02:52:49 435.465 / 435.565
M-CUBED/EXP-1 PRIME 22 Jan 02:44:28 02:47:02 16° 65° (ENE) 02:49:31 437.505
ITAMSAT 1 22 Jan 02:48:20 02:52:06 20° 95° (E) 02:55:50 435.822/435.867
Cosmos 2491 22 Jan 03:11:43 03:20:09 54° 281° (W) 03:28:39 435.465 / 435.565
AUBIESAT-1 22 Jan 03:18:24 03:22:06 29° 68° (ENE) 03:25:37 437.475
DANDE 22 Jan 03:20:09 03:21:43 12° 80° (E) 03:23:27 436.750
ITUPSAT 1 22 Jan 03:30:16 03:34:11 25° 264° (W) 03:38:06 437.325
MOZHAYETS 4 22 Jan 03:42:52 03:47:22 63° 259° (W) 03:51:56
Oscar 19 22 Jan 03:42:56 03:44:32 11° 298° (WNW) 03:46:07 437.125/150
CUSAT 1 22 Jan 03:50:39 03:55:33 58° 283° (WNW) 04:02:00 437.405
AO-7 22 Jan 03:53:35 04:01:47 56° 103° (ESE) 04:09:52 29.400- 29.500
PHONESAT 2.4 22 Jan 03:55:43 03:57:24 18° 2° (N) 03:59:05 2401.200-2431.200
BEESAT 22 Jan 04:07:27 04:07:58 10° 269° (W) 04:08:28 436.000
KKS-1 22 Jan 04:09:48 04:14:15 80° 76° (ENE) 04:18:42 437.445
Gurwin Techsat 1B 22 Jan 04:10:28 04:12:40 13° 297° (WNW) 04:14:52 435.225
RS-15 22 Jan 04:11:26 04:17:15 14° 352° (N) 04:23:05 29.354- 29.394
M-CUBED/EXP-1 PRIME 22 Jan 04:17:02 04:21:13 41° 256° (WSW) 04:25:10 437.505
AIST 2 22 Jan 04:24:31 04:28:36 43° 57° (ENE) 04:32:37 435.215
ITAMSAT 1 22 Jan 04:26:47 04:31:40 42° 289° (WNW) 04:36:32 435.822/435.867
CUBESAT XI-V 22 Jan 04:33:10 04:37:47 63° 75° (ENE) 04:42:28 437.345
Cosmos 2504 22 Jan 04:35:41 04:37:49 11° 281° (WNW) 04:39:56 435.465 / 435.565
AUBIESAT-1 22 Jan 04:53:18 04:56:26 20° 259° (WSW) 04:59:27 437.475
ISS 22 Jan 04:55:48 04:59:01 59° 41° (NE) 05:02:12 145.825
STARS 22 Jan 04:58:06 05:02:27 65° 258° (WSW) 05:06:48 437.465
DANDE 22 Jan 05:00:02 05:03:33 37° 287° (WNW) 05:08:11 436.750
GOMX 1 22 Jan 05:11:39 05:13:55 14° 92° (E) 05:16:08 467.674
HORYU 2 22 Jan 05:14:36 05:17:48 19° 95° (E) 05:20:59 437.375
BRITE-PL 22 Jan 05:15:26 05:20:02 50° 99° (E) 05:24:18 437.365/2234.400
O/OREOS (USA 219) 22 Jan 05:22:22 05:25:27 19° 101° (E) 05:28:33 437.305
PHONESAT 2.4 22 Jan 05:29:29 05:31:38 41° 19° (NNE) 05:33:46 2401.200-2431.200
DOVE 4 22 Jan 05:42:43 05:43:21 10° 92° (E) 05:44:00 437.250
AO-7 22 Jan 05:47:06 05:54:03 31° 300° (WNW) 06:00:58 29.400- 29.500
CUTE-I 22 Jan 05:51:06 05:54:42 18° 94° (E) 05:58:17 437.470
AIST 2 22 Jan 06:04:25 06:06:39 14° 252° (WSW) 06:08:53 435.215
CUBESAT XI-V 22 Jan 06:14:42 06:15:31 10° 269° (W) 06:16:20 437.345
SO-50 22 Jan 06:18:32 06:19:51 11° 107° (ESE) 06:21:10 436.795
RS-15 22 Jan 06:28:15 06:37:02 21° 29° (NNE) 06:45:38 29.354- 29.394
Cubesat XI-IV 22 Jan 06:33:40 06:38:49 48° 100° (E) 06:43:58 437.490
NOAA 15 22 Jan 06:35:55 06:41:07 53° 101° (E) 06:46:16 137.62
LilacSat-2 22 Jan 06:36:45 06:40:37 66° 101° (E) 06:44:28 437.200
Cosmos 2499 22 Jan 06:45:54 06:52:45 50° 79° (E) 06:59:35 435.465 / 435.565
GOMX 1 22 Jan 06:48:13 06:52:12 36° 288° (WNW) 06:56:02 467.674
HORYU 2 22 Jan 06:50:23 06:54:21 32° 289° (WNW) 06:58:19 437.375
NOAA 18 22 Jan 06:53:19 06:58:22 38° 99° (E) 07:03:24 137.9125
CINEMA 3 22 Jan 06:55:41 06:58:30 17° 95° (E) 07:01:22 145.822/145.860
BRITE-PL 22 Jan 06:55:41 06:57:57 13° 296° (WNW) 07:00:06 437.365/2234.400
O/OREOS (USA 219) 22 Jan 07:00:33 07:04:34 32° 295° (WNW) 07:08:36 437.305
STRAND 1 22 Jan 07:03:01 07:08:04 69° 74° (ENE) 07:13:08 437.568
PHONESAT 2.4 22 Jan 07:03:43 07:05:25 19° 212° (SSW) 07:07:05 2401.200-2431.200
GONETS M04 22 Jan 07:13:53 07:22:41 66° 81° (E) 07:31:27
DOVE 4 22 Jan 07:17:20 07:21:19 47° 286° (WNW) 07:25:18 437.250
HO-68 22 Jan 07:18:42 07:24:33 26° 96° (E) 07:30:21 435.675
CUTE-I 22 Jan 07:29:50 07:34:56 47° 288° (WNW) 07:40:01 437.470
CUBEBUG 2 22 Jan 07:38:41 07:40:17 12° 93° (E) 07:41:54 437.445
CUTE 1.7 + AOD 2 22 Jan 07:42:15 07:46:07 32° 97° (E) 07:49:58 437.475
SO-50 22 Jan 07:55:02 07:59:45 67° 301° (WNW) 08:04:25 436.795
UWE-3 22 Jan 08:02:21 08:04:41 14° 93° (E) 08:07:02 435.000/436.395/437.385
CANX-2 22 Jan 08:11:34 08:15:53 89° 288° (WNW) 08:20:10 2200.000
Cubesat XI-IV 22 Jan 08:14:50 08:18:28 19° 295° (WNW) 08:22:07 437.490
NOAA 15 22 Jan 08:17:05 08:20:24 17° 296° (WNW) 08:23:42 137.62
ZACube-1 22 Jan 08:17:19 08:18:57 12° 92° (E) 08:20:34 437.345
SEEDS 22 Jan 08:18:33 08:22:46 59° 100° (E) 08:26:56 437.485
COMPASS 1 22 Jan 08:20:21 08:24:17 38° 98° (E) 08:28:11 437.405
AAUSAT CUBESAT 2 22 Jan 08:29:38 08:33:31 37° 98° (E) 08:37:21 437.432
CINEMA 3 22 Jan 08:31:54 08:35:39 32° 287° (WNW) 08:39:31 145.822/145.860
NOAA 18 22 Jan 08:34:29 08:38:45 24° 294° (WNW) 08:43:02 137.9125
Cosmos 2499 22 Jan 08:40:06 08:45:20 23° 275° (W) 08:50:36 435.465 / 435.565
RS-15 22 Jan 08:40:19 08:52:36 66° 57° (ENE) 09:04:20 29.354- 29.394
STRAND 1 22 Jan 08:46:20 08:47:39 11° 269° (W) 08:48:59 437.568
Oscar 11 22 Jan 08:48:28 08:51:54 22° 95° (E) 08:55:20 145.826/435.025
ANTELSAT 22 Jan 08:50:27 08:51:53 12° 66° (ENE) 08:53:19 437.575/2403.000
PRISM 22 Jan 08:54:54 08:58:56 50° 74° (ENE) 09:02:59 437.425
HO-68 22 Jan 09:05:35 09:12:26 50° 291° (WNW) 09:19:16 435.675
GONETS M04 22 Jan 09:12:18 09:18:39 23° 278° (W) 09:25:00
CUBEBUG 2 22 Jan 09:12:50 09:17:05 51° 285° (WNW) 09:21:28 437.445
CUTE 1.7 + AOD 2 22 Jan 09:18:48 09:21:41 18° 291° (WNW) 09:24:32 437.475
FUNcube-1 22 Jan 09:26:42 09:31:08 74° 101° (ESE) 09:35:38 145.935
DELFI C3 22 Jan 09:29:40 09:32:37 20° 95° (E) 09:35:32 145.870
UWE-3 22 Jan 09:37:04 09:41:16 44° 286° (WNW) 09:45:32 435.000/436.395/437.385
HUMSAT D 22 Jan 09:45:11 09:48:03 17° 94° (E) 09:50:54 437.325/437.525
ZACube-1 22 Jan 09:51:08 09:55:26 51° 285° (WNW) 09:59:48 437.345
UNISAT 6 22 Jan 09:55:22 09:59:36 72° 76° (ENE) 10:03:51 437.425
COMPASS 1 22 Jan 09:57:07 09:59:27 15° 292° (WNW) 10:01:47 437.405
SEEDS 22 Jan 09:57:45 09:57:53 10° 295° (WNW) 09:58:00 437.485
AAUSAT CUBESAT 2 22 Jan 10:06:15 10:08:37 15° 292° (WNW) 10:10:59 437.432
PCSat 22 Jan 10:07:44 10:13:10 71° 63° (ENE) 10:18:33 145.827
TIGRISAT 22 Jan 10:08:03 10:12:18 86° 254° (WSW) 10:16:33 435.000
ANTELSAT 22 Jan 10:23:59 10:28:07 50° 260° (W) 10:32:16 437.575/2403.000
Oscar 11 22 Jan 10:24:20 10:27:57 26° 289° (WNW) 10:31:33 145.826/435.025
JAS-2 22 Jan 10:27:07 10:32:10 47° 71° (ENE) 10:37:42 435.910
PRISM 22 Jan 10:33:41 10:34:26 10° 268° (W) 10:35:13 437.425
RS-15 22 Jan 10:53:59 11:04:09 33° 256° (WSW) 11:14:01 29.354- 29.394
QB50P1 22 Jan 10:57:51 11:01:31 30° 71° (ENE) 11:05:10 145.935-145.965
POLYITAN 1 22 Jan 11:02:33 11:06:20 34° 72° (ENE) 11:10:07 437.675
QB50P2 22 Jan 11:03:46 11:07:39 38° 73° (ENE) 11:11:33 145.880/145.840
DELFI C3 22 Jan 11:04:06 11:07:20 24° 289° (WNW) 11:10:32 145.870
ESTCUBE 1 22 Jan 11:10:44 11:14:03 20° 95° (E) 11:17:21 437.505/2401.250
HUMSAT D 22 Jan 11:19:50 11:23:41 33° 288° (WNW) 11:27:32 437.325/437.525
POPSAT HIP 1 22 Jan 11:24:27 11:28:34 63° 76° (ENE) 11:32:43 437.405
DUCHIFAT 1 22 Jan 11:32:33 11:36:40 67° 75° (ENE) 11:40:48 145.980
NANOSAT C BR1 22 Jan 11:39:11 11:43:21 89° 268° (W) 11:47:33 145.865
BY70-1 22 Jan 11:39:46 11:42:57 72° 283° (WNW) 11:45:53 436.1900
CUBEBUG 1 22 Jan 11:53:16 11:57:11 33° 98° (E) 12:01:05 437.445
PCSat 22 Jan 11:53:44 11:55:51 12° 257° (WSW) 11:57:58 145.827
BUGSAT 1 22 Jan 11:58:42 12:02:34 44° 74° (ENE) 12:06:24 437.445
JAS-2 22 Jan 12:14:08 12:17:38 18° 269° (W) 12:21:20 435.910
AISAT 22 Jan 12:15:15 12:19:21 38° 99° (E) 12:23:24 437.250
50 SAT 22 Jan 12:22:37 12:25:46 29° 98° (E) 12:28:53 437.505
QB50P1 22 Jan 12:34:24 12:37:16 18° 265° (W) 12:40:09 145.935-145.965
POLYITAN 1 22 Jan 12:39:41 12:42:11 15° 266° (W) 12:44:43 437.675
QB50P2 22 Jan 12:41:21 12:43:33 14° 267° (W) 12:45:46 145.880/145.840
ESTCUBE 1 22 Jan 12:46:51 12:50:51 31° 289° (WNW) 12:54:49 437.505/2401.250
CUSAT 1 22 Jan 12:47:38 12:51:44 15° 63° (ENE) 12:55:38 437.405
VELOX 1 22 Jan 12:48:16 12:52:41 89° 281° (WNW) 12:57:03 145.980
SPROUT 22 Jan 13:00:42 13:04:59 85° 281° (W) 13:09:14 437.525
AO-7 22 Jan 13:05:11 13:05:45 10° 48° (NE) 13:06:19 29.400- 29.500
UKube-1 22 Jan 13:07:57 13:12:07 47° 100° (E) 13:16:15 .
DX 1 22 Jan 13:13:07 13:17:29 80° 104° (ESE) 13:21:47 434.975-435.025
Oscar 19 22 Jan 13:14:01 13:19:12 79° 76° (ENE) 13:24:25 437.125/150
AIST 1 22 Jan 13:19:05 13:22:28 22° 89° (E) 13:25:49
Cosmos 2504 22 Jan 13:23:49 13:27:13 13° 79° (E) 13:30:33 435.465 / 435.565
JUGNU 22 Jan 13:23:49 13:26:56 15° 170° (S) 13:30:03 437.505
Cosmos 2491 22 Jan 13:25:48 13:34:34 66° 81° (E) 13:43:18 435.465 / 435.565
YUBILEINY 22 Jan 13:27:50 13:35:15 32° 85° (E) 13:42:43 435.215
CUBEBUG 1 22 Jan 13:30:20 13:33:10 17° 292° (WNW) 13:36:00 437.445
BUGSAT 1 22 Jan 13:36:54 13:38:06 11° 267° (W) 13:39:18 437.445
AO-85 22 Jan 13:38:04 13:42:55 88° 298° (WNW) 13:47:24 145.980
Gurwin Techsat 1B 22 Jan 13:45:43 13:51:02 83° 75° (ENE) 13:56:21 435.225
AISAT 22 Jan 13:52:46 13:55:27 16° 293° (WNW) 13:58:08 437.250
50 SAT 22 Jan 13:57:03 13:58:40 13° 292° (WNW) 14:00:15 437.505
DANDE 22 Jan 13:57:21 14:03:08 21° 69° (ENE) 14:09:01 436.750
ITAMSAT 1 22 Jan 14:03:13 14:07:09 22° 67° (ENE) 14:11:05 435.822/435.867
TISAT 1 22 Jan 14:20:45 14:24:56 77° 283° (WNW) 14:29:06 437.305
CUSAT 1 22 Jan 14:26:54 14:34:55 82° 83° (E) 14:41:54 437.405
BEESAT 22 Jan 14:29:17 14:32:57 22° 95° (E) 14:36:35 436.000
SWISSCUBE 22 Jan 14:30:55 14:34:54 25° 96° (E) 14:38:50 437.505
UKube-1 22 Jan 14:45:46 14:47:42 13° 294° (WNW) 14:49:37 .
AO-7 22 Jan 14:48:36 14:56:41 57° 67° (ENE) 15:04:48 29.400- 29.500
AIST 1 22 Jan 14:56:20 14:59:53 24° 283° (WNW) 15:03:26
SRMSAT 22 Jan 14:58:53 15:00:33 11° 165° (SSE) 15:02:12 437.500
BEESAT 3 22 Jan 15:10:31 15:13:31 22° 111° (ESE) 15:16:34 437.485
Cosmos 2504 22 Jan 15:10:41 15:19:25 83° 95° (E) 15:27:40 435.465 / 435.565
JUGNU 22 Jan 15:11:19 15:15:12 18° 180° (S) 15:19:06 437.505
YUBILEINY 22 Jan 15:23:12 15:31:37 49° 282° (WNW) 15:40:07 435.215
Cosmos 2491 22 Jan 15:24:15 15:30:33 23° 278° (W) 15:36:52 435.465 / 435.565
ITUPSAT 1 22 Jan 15:32:56 15:37:45 77° 284° (WNW) 15:42:33 437.325
O/OREOS (USA 219) 22 Jan 15:34:45 15:38:15 22° 62° (ENE) 15:41:45 437.305
DANDE 22 Jan 15:38:22 15:46:31 81° 264° (W) 15:54:45 436.750
MOZHAYETS 4 22 Jan 15:41:13 15:45:34 38° 98° (E) 15:49:54
ITAMSAT 1 22 Jan 15:41:35 15:46:20 37° 261° (W) 15:51:07 435.822/435.867
BEESAT 2 22 Jan 15:59:45 16:03:17 33° 113° (ESE) 16:06:53 435.950
M-CUBED/EXP-1 PRIME 22 Jan 16:00:50 16:02:07 12° 99° (E) 16:03:25 437.505
KKS-1 22 Jan 16:04:56 16:08:07 19° 95° (E) 16:11:17 437.445
BEESAT 22 Jan 16:06:27 16:10:43 33° 290° (WNW) 16:14:58 436.000
SWISSCUBE 22 Jan 16:08:30 16:12:35 28° 290° (WNW) 16:16:38 437.505
HORYU 2 22 Jan 16:10:53 16:12:40 12° 65° (ENE) 16:14:29 437.375
CUSAT 1 22 Jan 16:11:06 16:15:39 17° 279° (W) 16:19:57 437.405
GOMX 1 22 Jan 16:15:56 16:19:00 16° 67° (ENE) 16:22:00 467.674
BRITE-PL 22 Jan 16:21:15 16:26:39 46° 73° (ENE) 16:31:58 437.365/2234.400
SO-50 22 Jan 16:29:44 16:34:00 41° 56° (NE) 16:38:13 436.795
CUBESAT XI-V 22 Jan 16:33:57 16:37:24 20° 94° (E) 16:40:49 437.345
AUBIESAT-1 22 Jan 16:34:02 16:36:55 28° 103° (ESE) 16:39:47 437.475
AO-7 22 Jan 16:42:50 16:49:42 28° 263° (W) 16:56:39 29.400- 29.500
SRMSAT 22 Jan 16:45:06 16:48:57 18° 175° (S) 16:52:50 437.500
DOVE 4 22 Jan 16:45:53 16:46:12 10° 65° (ENE) 16:46:32 437.250
BEESAT 3 22 Jan 16:47:46 16:50:59 24° 306° (NW) 16:54:14 437.485
STARS 22 Jan 16:51:02 16:54:48 28° 97° (E) 16:58:33 437.465
JUGNU 22 Jan 17:00:22 17:03:29 15° 190° (S) 17:06:36 437.505
Cosmos 2504 22 Jan 17:08:16 17:13:33 18° 291° (WNW) 17:18:42 435.465 / 435.565
CUTE-I 22 Jan 17:09:43 17:13:43 22° 67° (ENE) 17:17:44 437.470
O/OREOS (USA 219) 22 Jan 17:13:43 17:17:37 29° 257° (WSW) 17:21:32 437.305
LilacSat-2 22 Jan 17:16:11 17:18:55 19° 70° (ENE) 17:21:39 437.200
MOZHAYETS 4 22 Jan 17:19:17 17:22:23 18° 293° (WNW) 17:25:29
DANDE 22 Jan 17:24:10 17:28:08 14° 279° (W) 17:32:08 436.750
M-CUBED/EXP-1 PRIME 22 Jan 17:33:55 17:36:40 25° 293° (WNW) 17:39:23 437.505
BEESAT 2 22 Jan 17:38:26 17:41:09 18° 309° (NW) 17:43:54 435.950
KKS-1 22 Jan 17:40:47 17:44:41 31° 289° (WNW) 17:48:34 437.445
HORYU 2 22 Jan 17:44:27 17:48:44 52° 260° (W) 17:53:03 437.375
HO-68 22 Jan 17:46:26 17:50:02 15° 57° (ENE) 17:53:37 435.675
GOMX 1 22 Jan 17:51:15 17:56:36 59° 260° (W) 18:01:43 467.674
Cubesat XI-IV 22 Jan 17:52:17 17:57:29 57° 73° (ENE) 18:02:40 437.490
NOAA 15 22 Jan 17:52:31 17:57:43 62° 74° (ENE) 18:02:58 137.62
CINEMA 3 22 Jan 17:56:01 17:57:17 11° 67° (ENE) 17:58:34 145.822/145.860
BRITE-PL 22 Jan 18:00:55 18:05:11 22° 266° (W) 18:09:27 437.365/2234.400
AUBIESAT-1 22 Jan 18:09:50 18:11:04 12° 297° (WNW) 18:12:18 437.475
CUBESAT XI-V 22 Jan 18:10:37 18:14:47 33° 289° (WNW) 18:18:55 437.345
SO-50 22 Jan 18:11:16 18:14:05 16° 251° (WSW) 18:16:53 436.795
NOAA 18 22 Jan 18:16:09 18:21:29 54° 72° (ENE) 18:26:50 137.9125
DOVE 4 22 Jan 18:18:18 18:23:19 76° 258° (WSW) 18:28:05 437.250
AIST 2 22 Jan 18:19:36 18:22:35 20° 110° (ESE) 18:25:37 435.215
GONETS M04 22 Jan 18:20:07 18:23:33 13° 77° (ENE) 18:27:00
STARS 22 Jan 18:27:39 18:30:57 21° 291° (WNW) 18:34:16 437.465
CUTE 1.7 + AOD 2 22 Jan 18:32:38 18:35:13 16° 68° (ENE) 18:37:49 437.475
SRMSAT 22 Jan 18:33:32 18:37:26 18° 185° (S) 18:41:20 437.500
CUTE-I 22 Jan 18:48:32 18:53:28 39° 261° (W) 18:58:26 437.470
LilacSat-2 22 Jan 18:50:04 18:53:02 22° 264° (W) 18:56:02 437.200
CANX-2 22 Jan 19:00:48 19:04:46 40° 73° (ENE) 19:08:46 2200.000
SEEDS 22 Jan 19:07:08 19:10:39 26° 71° (ENE) 19:14:10 437.485
COMPASS 1 22 Jan 19:08:33 19:11:19 17° 69° (ENE) 19:14:07 437.405
STRAND 1 22 Jan 19:17:15 19:21:46 30° 97° (E) 19:26:16 437.568
Cosmos 2499 22 Jan 19:17:22 19:25:23 48° 90° (E) 19:32:51 435.465 / 435.565
AAUSAT CUBESAT 2 22 Jan 19:17:24 19:20:02 17° 69° (ENE) 19:22:42 437.432
HO-68 22 Jan 19:29:29 19:36:41 87° 76° (ENE) 19:43:56 435.675
CINEMA 3 22 Jan 19:29:39 19:33:59 54° 260° (W) 19:38:12 145.822/145.860
Cubesat XI-IV 22 Jan 19:34:59 19:37:51 15° 267° (W) 19:40:44 437.490
NOAA 15 22 Jan 19:35:18 19:37:50 13° 268° (W) 19:40:23 137.62
Oscar 11 22 Jan 19:41:43 19:43:22 12° 66° (ENE) 19:45:00 145.826/435.025
AIST 2 22 Jan 19:57:12 20:00:50 30° 305° (NW) 20:04:32 435.215
NOAA 18 22 Jan 19:58:59 20:02:24 17° 266° (W) 20:05:50 137.9125
CUTE 1.7 + AOD 2 22 Jan 20:06:48 20:10:43 36° 262° (W) 20:14:40 437.475
CUBEBUG 2 22 Jan 20:07:26 20:11:36 85° 77° (ENE) 20:15:45 437.445
GONETS M04 22 Jan 20:10:13 20:18:54 84° 95° (E) 20:27:41
FUNcube-1 22 Jan 20:19:10 20:22:54 34° 72° (ENE) 20:26:40 145.935
SRMSAT 22 Jan 20:24:01 20:25:52 11° 195° (SSW) 20:27:42 437.500
UWE-3 22 Jan 20:30:27 20:34:35 84° 258° (WSW) 20:38:45 435.000/436.395/437.385
CANX-2 22 Jan 20:38:35 20:40:46 14° 267° (W) 20:42:57 2200.000
COMPASS 1 22 Jan 20:42:50 20:46:36 32° 263° (W) 20:50:22 437.405
SEEDS 22 Jan 20:43:03 20:46:16 21° 265° (W) 20:49:30 437.485
ZACube-1 22 Jan 20:43:21 20:47:28 79° 75° (ENE) 20:51:37 437.345
AAUSAT CUBESAT 2 22 Jan 20:51:26 20:55:12 33° 263° (W) 20:59:00 437.432
STRAND 1 22 Jan 20:56:31 21:00:47 27° 291° (WNW) 21:05:02 437.568
Cosmos 2499 22 Jan 21:11:27 21:18:36 30° 285° (WNW) 21:25:21 435.465 / 435.565
Oscar 11 22 Jan 21:14:48 21:19:00 51° 260° (W) 21:23:14 145.826/435.025
HO-68 22 Jan 21:21:46 21:25:06 14° 269° (W) 21:28:28 435.675
ISS 22 Jan 21:33:09 21:36:23 64° 319° (NW) 21:39:37 145.825
DELFI C3 22 Jan 21:45:11 21:49:09 70° 259° (W) 21:53:10 145.870
UNISAT 6 22 Jan 21:50:47 21:54:05 20° 95° (E) 21:57:25 437.425
FUNcube-1 22 Jan 21:56:54 21:59:14 15° 267° (W) 22:01:35 145.935
